Location: St. Louis
(38.6270°N, 90.1994°W)
Time: 07:18:03
(UTC-06:00)

deb Explorer IX - Pass Details

Date: 08 December 2021
Orbit: 544 x 1082 km, 38.8° (Epoch: 19 January)

Event Time Altitude Azimuth Distance (km) Brightness Sun altitude
Rises 07:21:45 0° 224° (SW) 3,518 ? 1.8°
Reaches altitude 10° 07:24:43 10° 215° (SW) 2,484 ? 2.3°
Maximum altitude 07:29:52 33° 153° (SSE) 1,284 ? 3.1°
Drops below altitude 10° 07:34:23 10° 90° (E) 2,158 ? 3.9°
Sets 07:36:47 0° 81° (E) 2,994 ? 4.2°
